Location: *
(60.1759°S, 155.0663°W)
Time: 14:25:33
(UTC+00:00)

Cosmos 1666 Rocket - Pass Details

Date: 17 September 2019
Orbit: 605 x 632 km, 82.5° (Epoch: 19 October)

Event Time Altitude Azimuth Distance (km) Brightness Sun altitude
Exits shadow 13:09:26 46° 24° (NNE) 868 4.1 -23.2°
Maximum altitude 13:10:34 63° 81° (E) 723 3.9 -23.1°
Drops below altitude 10° 13:15:05 10° 162° (SSE) 2,054 7.0 -22.6°
Sets 13:17:21 0° 164° (SSE) 2,966 7.9 -22.4°
